Nashville, TN (37235)

2:51 PM CDT on March 27, 2015 (GMT -0500)
Green Hills | | Change Station
CLOSE
Current Station
Personal Weather Station
Location: Nashville, TN
Elevation: 699 ft
Nearby Weather Stations

Elev 699 ft 36.09 °N, 86.83 °W | Updated 13 minutes ago

Overcast
Overcast
45.3 °F
Feels Like 45 °F
N
0.0
Wind Variable Wind from NNW
Gusts 0.0 mph

Today
High -- | Low -- °F
--% Chance of Precip.
Yesterday
High -- | Low -- °F
Precip. -- in
6:40 AM 7:04 PM
First Quarter, 55% visible
Pressure 30.01 in
Visibility 10.0 miles
Clouds Mostly Cloudy 5000 ft
Overcast 6000 ft
Windchill 45 °F
Dew Point 31 °F
Humidity 57%
Rainfall 0.00 in
Snow Depth Not available.
UV 3 out of 12
Pollen 9.50 out of 12
Air Quality Not available.
Flu Activity Not available.
METAR KBNA 271853Z 36012KT 10SM BKN050 OVC060 09/M02 A3001 RMK AO2 SLP162 T00891022

More Conditions Fewer Conditions

Pressure 30.01 in
Visibility 10.0 miles
Clouds Mostly Cloudy 5000 ft
Overcast 6000 ft
Windchill 45 °F
Dew Point 31 °F
Humidity 57%
Rainfall 0.00 in
Snow Depth Not available.
UV 3 out of 12
Pollen 9.50 out of 12
Air Quality Not available.
Flu Activity Not available.
METAR KBNA 271853Z 36012KT 10SM BKN050 OVC060 09/M02 A3001 RMK AO2 SLP162 T00891022

More Conditions Fewer Conditions

10-Day Weather Forecast

Almanac

Astronomy

Mar. 27, 2015 Rise Set
Actual Time
Civil Twilight
Nautical Twilight
Astronomical Twilight
Moon
Length of Visible Light
Length of Day
Tomorrow will be .
, % of the Moon is Illuminated

Today's Extremes

State Highs State Lows

Community

WunderPhotos

Upload Photos

1,808,799 photos uploaded!

WunderBlogs® & News

Nearby

Air Quality

  Air Quality AQ Index Pollutant
Not available.

Snow Depth

Station Depth Elevation

Earthquake Activity

City Distance Mag. Time & Date
Minimum magnitude displayed is 2.5.

Coastal Water Temperatures

Place Temperature

Stations

Nearby Weather Stations

Station Location Temp. Windchill Dew Point Humidity Wind Precip. Elev Updated Type
                   
Hard Freeze Warning, Hard Freeze Watch
Statement as of 1:43 PM CDT on March 27, 2015

... Hard freeze warning remains in effect from 1 am to 10 am CDT
Saturday...
... Hard freeze watch remains in effect from late Saturday night
through Sunday morning...

* temperature... 21 degrees to around 28 degrees.

* Impacts... sensitive vegetation will be damaged or killed.

Boyd